NWA1UB KABQ-KLAX

Flight info

Callsign NWA1UB
Flight time 1h 47m
Altitude 32000
Route RDRNR3 ZUN J6 DRK HIPPI GABBL HLYWD1
Aircraft A320/M-SDE3FGHIRWY/LB1

Departure

Time 2026-05-04 01:00
Airport Albuquerque International Sunport (KABQ)

Arrival

Time 2026-05-04 02:47
Airport Los Angeles International Airport (KLAX)
Time Latitude Longitude Altitude Speed Heading
2026-05-04 00:30 35.04709 -106.61888 5326 ft 0 kts 71°
2026-05-04 00:34 35.04710 -106.61886 5326 ft 0 kts 71°
2026-05-04 00:48 35.04708 -106.61894 5326 ft 4 kts 69°
2026-05-04 00:49 35.04697 -106.61924 5316 ft 4 kts 63°
2026-05-04 00:49 35.04686 -106.61952 5322 ft 4 kts 89°
2026-05-04 00:49 35.04675 -106.61959 5322 ft 3 kts 178°
2026-05-04 00:54 35.04673 -106.61959 5327 ft 2 kts 181°
2026-05-04 00:54 35.04639 -106.61961 5323 ft 7 kts 182°
2026-05-04 00:54 35.04578 -106.61973 5322 ft 11 kts 206°
2026-05-04 00:55 35.04560 -106.62008 5323 ft 3 kts 269°
2026-05-04 00:55 35.04560 -106.62034 5326 ft 3 kts 269°
2026-05-04 00:55 35.04560 -106.62050 5326 ft 1 kts 269°
2026-05-04 00:55 35.04559 -106.62069 5326 ft 5 kts 269°
2026-05-04 00:56 35.04556 -106.62111 5327 ft 4 kts 259°
2026-05-04 00:56 35.04550 -106.62126 5323 ft 0 kts 233°
2026-05-04 00:57 35.04511 -106.62146 5333 ft 11 kts 185°
2026-05-04 00:57 35.04439 -106.62122 5331 ft 10 kts 132°
2026-05-04 00:58 35.04435 -106.62086 5332 ft 0 kts 87°
2026-05-04 00:59 35.04435 -106.61997 5329 ft 40 kts 90°
2026-05-04 00:59 35.04429 -106.61271 5325 ft 127 kts 90°
2026-05-04 00:59 35.04421 -106.59915 5329 ft 190 kts 90°
2026-05-04 01:00 35.04463 -106.58166 5863 ft 213 kts 92°
2026-05-04 01:00 35.04528 -106.56307 6696 ft 225 kts 92°
2026-05-04 01:00 35.04524 -106.54394 7516 ft 233 kts 94°
2026-05-04 01:00 35.04921 -106.52380 8069 ft 260 kts 60°
2026-05-04 01:01 35.06306 -106.50847 8537 ft 285 kts 23°
2026-05-04 01:01 35.08294 -106.50472 9198 ft 297 kts 347°
2026-05-04 01:01 35.09580 -106.50999 9872 ft 295 kts 325°
2026-05-04 01:01 35.10991 -106.52726 10897 ft 290 kts 296°
2026-05-04 01:02 35.11528 -106.55154 11475 ft 310 kts 268°
2026-05-04 01:02 35.11146 -106.57819 12086 ft 327 kts 256°
2026-05-04 01:02 35.10576 -106.60533 13076 ft 332 kts 256°
2026-05-04 01:02 35.09805 -106.64187 14379 ft 338 kts 256°
2026-05-04 01:03 35.09408 -106.66066 14980 ft 340 kts 257°
2026-05-04 01:03 35.09012 -106.68932 15853 ft 345 kts 264°
2026-05-04 01:03 35.08884 -106.71872 16736 ft 349 kts 269°
2026-05-04 01:03 35.08909 -106.74860 17598 ft 354 kts 272°
2026-05-04 01:04 35.09315 -106.77852 18441 ft 360 kts 283°
2026-05-04 01:04 35.09913 -106.80828 19227 ft 362 kts 281°
2026-05-04 01:04 35.10433 -106.83848 19797 ft 364 kts 280°
2026-05-04 01:04 35.10887 -106.86877 20002 ft 362 kts 277°
2026-05-04 01:05 35.10972 -106.89934 19883 ft 360 kts 265°
2026-05-04 01:05 35.10566 -106.92947 19893 ft 360 kts 256°
2026-05-04 01:05 35.09940 -106.95908 19894 ft 360 kts 257°
2026-05-04 01:05 35.09338 -106.98875 19894 ft 360 kts 257°
2026-05-04 01:06 35.08756 -107.01803 19893 ft 360 kts 257°
2026-05-04 01:06 35.08172 -107.04769 19893 ft 359 kts 257°
2026-05-04 01:06 35.07587 -107.07730 19891 ft 358 kts 257°
2026-05-04 01:06 35.07001 -107.10684 19887 ft 358 kts 257°
2026-05-04 01:07 35.06412 -107.13630 19884 ft 357 kts 257°
2026-05-04 01:07 35.05819 -107.16576 19888 ft 357 kts 257°
2026-05-04 01:07 35.05213 -107.19560 20403 ft 363 kts 257°
2026-05-04 01:07 35.04602 -107.22553 21255 ft 364 kts 257°
2026-05-04 01:08 35.03994 -107.25565 22070 ft 366 kts 259°
2026-05-04 01:08 35.03683 -107.28648 22828 ft 367 kts 268°
2026-05-04 01:08 35.03592 -107.31772 23550 ft 369 kts 268°
2026-05-04 01:08 35.03498 -107.34924 24176 ft 371 kts 268°
2026-05-04 01:09 35.03401 -107.38071 24796 ft 371 kts 268°
2026-05-04 01:09 35.03301 -107.41225 25399 ft 372 kts 268°
2026-05-04 01:09 35.03201 -107.44379 25988 ft 373 kts 268°
2026-05-04 01:09 35.03100 -107.47543 26570 ft 373 kts 268°
2026-05-04 01:10 35.03002 -107.50669 27123 ft 374 kts 268°
2026-05-04 01:10 35.02901 -107.53840 27689 ft 375 kts 268°
2026-05-04 01:10 35.02796 -107.57035 28239 ft 376 kts 268°
2026-05-04 01:10 35.02690 -107.60231 28785 ft 377 kts 269°
2026-05-04 01:11 35.02584 -107.63433 29304 ft 378 kts 269°
2026-05-04 01:11 35.02476 -107.66645 29791 ft 379 kts 269°
2026-05-04 01:11 35.02370 -107.69858 30208 ft 380 kts 269°
2026-05-04 01:11 35.02262 -107.73086 30570 ft 381 kts 269°
2026-05-04 01:12 35.02153 -107.76329 30891 ft 383 kts 269°
2026-05-04 01:12 35.02043 -107.79581 31200 ft 385 kts 269°
2026-05-04 01:12 35.01931 -107.82855 31498 ft 387 kts 269°
2026-05-04 01:12 35.01817 -107.86134 31818 ft 386 kts 269°
2026-05-04 01:13 35.01701 -107.89385 31898 ft 378 kts 269°
2026-05-04 01:13 35.01471 -107.95610 31905 ft 365 kts 268°
2026-05-04 01:14 35.01246 -108.01793 31906 ft 365 kts 269°
2026-05-04 01:14 35.01026 -108.07983 31906 ft 365 kts 269°
2026-05-04 01:15 35.00798 -108.14167 31909 ft 365 kts 268°
2026-05-04 01:15 35.00560 -108.20340 31903 ft 364 kts 268°
2026-05-04 01:16 35.00323 -108.26506 31900 ft 364 kts 268°
2026-05-04 01:16 35.00088 -108.32679 31896 ft 364 kts 268°
2026-05-04 01:17 34.99844 -108.38849 31892 ft 364 kts 268°
2026-05-04 01:17 34.99597 -108.45010 31870 ft 364 kts 268°
2026-05-04 01:18 34.99350 -108.51177 31868 ft 365 kts 268°
2026-05-04 01:18 34.99103 -108.57360 31864 ft 365 kts 268°
2026-05-04 01:19 34.98850 -108.63506 31868 ft 366 kts 268°
2026-05-04 01:19 34.98588 -108.69706 31867 ft 366 kts 268°
2026-05-04 01:20 34.98319 -108.75925 31857 ft 366 kts 268°
2026-05-04 01:20 34.98054 -108.82124 31843 ft 366 kts 268°
2026-05-04 01:21 34.97786 -108.88328 31848 ft 366 kts 268°
2026-05-04 01:21 34.97515 -108.94543 31853 ft 367 kts 268°
2026-05-04 01:22 34.97241 -109.00717 31842 ft 367 kts 268°
2026-05-04 01:22 34.96958 -109.06923 31880 ft 367 kts 268°
2026-05-04 01:23 34.96675 -109.13136 31854 ft 367 kts 268°
2026-05-04 01:23 34.96356 -109.19346 31851 ft 367 kts 267°
2026-05-04 01:24 34.95937 -109.25546 31852 ft 367 kts 266°
2026-05-04 01:24 34.95510 -109.31734 31853 ft 366 kts 266°
2026-05-04 01:25 34.95092 -109.37893 31851 ft 367 kts 266°
2026-05-04 01:25 34.94668 -109.44093 31842 ft 367 kts 266°
2026-05-04 01:26 34.94251 -109.50293 31837 ft 367 kts 266°
2026-05-04 01:26 34.93834 -109.56489 31831 ft 366 kts 266°
2026-05-04 01:27 34.93407 -109.62677 31839 ft 367 kts 266°
2026-05-04 01:27 34.92975 -109.68866 31829 ft 366 kts 266°
2026-05-04 01:28 34.92543 -109.75062 31828 ft 366 kts 266°
2026-05-04 01:28 34.92108 -109.81211 31823 ft 366 kts 266°
2026-05-04 01:29 34.91667 -109.87394 31829 ft 366 kts 266°
2026-05-04 01:29 34.91230 -109.93576 31828 ft 366 kts 266°
2026-05-04 01:30 34.90784 -109.99759 31832 ft 366 kts 266°
2026-05-04 01:30 34.90331 -110.05933 31832 ft 366 kts 266°
2026-05-04 01:31 34.89884 -110.12069 31825 ft 365 kts 266°
2026-05-04 01:31 34.89429 -110.18232 31833 ft 365 kts 265°
2026-05-04 01:32 34.88971 -110.24388 31837 ft 365 kts 265°
2026-05-04 01:32 34.88516 -110.30535 31835 ft 364 kts 265°
2026-05-04 01:33 34.88051 -110.36685 31837 ft 364 kts 265°
2026-05-04 01:33 34.87586 -110.42833 31835 ft 364 kts 265°
2026-05-04 01:34 34.87123 -110.48931 31831 ft 364 kts 265°
2026-05-04 01:34 34.86657 -110.55062 31824 ft 364 kts 265°
2026-05-04 01:35 34.86184 -110.61191 31836 ft 364 kts 265°
2026-05-04 01:35 34.85709 -110.67321 31937 ft 364 kts 265°
2026-05-04 01:36 34.85229 -110.73450 31939 ft 363 kts 265°
2026-05-04 01:36 34.84748 -110.79585 31935 ft 363 kts 265°
2026-05-04 01:37 34.84264 -110.85709 31914 ft 363 kts 265°
2026-05-04 01:37 34.83772 -110.91790 31909 ft 363 kts 265°
2026-05-04 01:38 34.83280 -110.97916 31895 ft 363 kts 265°
2026-05-04 01:38 34.82794 -111.04036 31891 ft 363 kts 265°
2026-05-04 01:39 34.82301 -111.10149 31876 ft 363 kts 265°
2026-05-04 01:39 34.81794 -111.16249 31918 ft 362 kts 265°
2026-05-04 01:40 34.81294 -111.22324 31913 ft 360 kts 265°
2026-05-04 01:40 34.80794 -111.28384 31917 ft 359 kts 265°
2026-05-04 01:41 34.80292 -111.34410 31914 ft 358 kts 265°
2026-05-04 01:41 34.79789 -111.40425 31913 ft 357 kts 265°
2026-05-04 01:42 34.79283 -111.46408 31899 ft 357 kts 265°
2026-05-04 01:42 34.78769 -111.52465 31897 ft 358 kts 265°
2026-05-04 01:43 34.78253 -111.58462 31941 ft 359 kts 265°
2026-05-04 01:43 34.77733 -111.64507 31955 ft 360 kts 265°
2026-05-04 01:44 34.77212 -111.70564 31970 ft 360 kts 265°
2026-05-04 01:44 34.76690 -111.76623 31975 ft 360 kts 265°
2026-05-04 01:45 34.76162 -111.82682 31990 ft 359 kts 264°
2026-05-04 01:45 34.75365 -111.91740 31966 ft 358 kts 264°
2026-05-04 01:46 34.74827 -111.97763 31935 ft 358 kts 264°
2026-05-04 01:46 34.74289 -112.03741 31907 ft 358 kts 264°
2026-05-04 01:47 34.73756 -112.09749 31874 ft 357 kts 264°
2026-05-04 01:47 34.73307 -112.14790 31891 ft 357 kts 264°
2026-05-04 01:48 34.72772 -112.20752 31927 ft 357 kts 264°
2026-05-04 01:48 34.72222 -112.26753 31961 ft 357 kts 264°
2026-05-04 01:49 34.71673 -112.32747 31990 ft 357 kts 264°
2026-05-04 01:49 34.71122 -112.38745 31994 ft 357 kts 264°
2026-05-04 01:50 34.70564 -112.44731 31992 ft 356 kts 264°
2026-05-04 01:50 34.69980 -112.50715 31817 ft 356 kts 263°
2026-05-04 01:51 34.69288 -112.56677 31817 ft 356 kts 263°
2026-05-04 01:51 34.68568 -112.62596 31812 ft 356 kts 263°
2026-05-04 01:52 34.67857 -112.68551 31813 ft 356 kts 263°
2026-05-04 01:52 34.67153 -112.74506 31810 ft 356 kts 263°
2026-05-04 01:53 34.66451 -112.80461 31819 ft 355 kts 263°
2026-05-04 01:53 34.65751 -112.86393 31825 ft 354 kts 263°
2026-05-04 01:54 34.65050 -112.92252 31829 ft 352 kts 263°
2026-05-04 01:54 34.64337 -112.98135 31812 ft 352 kts 263°
2026-05-04 01:55 34.63623 -113.04009 31809 ft 351 kts 263°
2026-05-04 01:55 34.62916 -113.09884 31803 ft 351 kts 263°
2026-05-04 01:56 34.62204 -113.15750 31798 ft 351 kts 262°
2026-05-04 01:56 34.61490 -113.21617 31795 ft 351 kts 262°
2026-05-04 01:57 34.60775 -113.27471 31778 ft 350 kts 262°
2026-05-04 01:57 34.60056 -113.33276 31776 ft 350 kts 262°
2026-05-04 01:58 34.59327 -113.39121 31757 ft 350 kts 262°
2026-05-04 01:58 34.58605 -113.44961 31751 ft 350 kts 262°
2026-05-04 01:59 34.57881 -113.50797 31748 ft 349 kts 262°
2026-05-04 01:59 34.57146 -113.56623 31750 ft 349 kts 262°
2026-05-04 02:00 34.56414 -113.62435 31744 ft 348 kts 262°
2026-05-04 02:00 34.55716 -113.68246 31744 ft 348 kts 263°
2026-05-04 02:01 34.55091 -113.74067 31745 ft 348 kts 263°
2026-05-04 02:01 34.54470 -113.79842 31744 ft 346 kts 263°
2026-05-04 02:02 34.53826 -113.85635 31747 ft 347 kts 263°
2026-05-04 02:02 34.53178 -113.91427 31736 ft 346 kts 263°
2026-05-04 02:03 34.52530 -113.97206 31734 ft 346 kts 263°
2026-05-04 02:03 34.51876 -114.02988 31726 ft 345 kts 263°
2026-05-04 02:04 34.50925 -114.08699 31714 ft 346 kts 257°
2026-05-04 02:04 34.49732 -114.14344 31719 ft 345 kts 257°
2026-05-04 02:05 34.48543 -114.19985 31727 ft 345 kts 257°
2026-05-04 02:05 34.47350 -114.25617 31732 ft 345 kts 257°
2026-05-04 02:06 34.46150 -114.31256 31730 ft 345 kts 257°
2026-05-04 02:06 34.44956 -114.36840 31697 ft 344 kts 257°
2026-05-04 02:07 34.43752 -114.42460 31699 ft 344 kts 257°
2026-05-04 02:07 34.42555 -114.48063 31702 ft 343 kts 257°
2026-05-04 02:08 34.41359 -114.53658 31704 ft 343 kts 257°
2026-05-04 02:08 34.40159 -114.59242 31703 ft 343 kts 257°
2026-05-04 02:09 34.38952 -114.64822 31708 ft 342 kts 257°
2026-05-04 02:09 34.37746 -114.70397 31708 ft 342 kts 257°
2026-05-04 02:10 34.36543 -114.75971 31707 ft 342 kts 257°
2026-05-04 02:10 34.35331 -114.81552 31713 ft 343 kts 257°
2026-05-04 02:11 34.34115 -114.87126 31706 ft 342 kts 257°
2026-05-04 02:11 34.32895 -114.92704 31710 ft 343 kts 257°
2026-05-04 02:12 34.31674 -114.98283 31714 ft 342 kts 257°
2026-05-04 02:12 34.30464 -115.03810 31738 ft 342 kts 256°
2026-05-04 02:13 34.29246 -115.09345 31739 ft 341 kts 256°
2026-05-04 02:13 34.28018 -115.14910 31742 ft 340 kts 256°
2026-05-04 02:14 34.26808 -115.20394 31739 ft 340 kts 256°
2026-05-04 02:14 34.25596 -115.25951 31734 ft 339 kts 257°
2026-05-04 02:15 34.24432 -115.31433 31738 ft 339 kts 257°
2026-05-04 02:15 34.23262 -115.36955 31735 ft 339 kts 256°
2026-05-04 02:16 34.22088 -115.42472 31739 ft 339 kts 256°
2026-05-04 02:16 34.20906 -115.47990 31737 ft 339 kts 256°
2026-05-04 02:17 34.19716 -115.53503 31748 ft 339 kts 256°
2026-05-04 02:17 34.18524 -115.59015 31747 ft 339 kts 256°
2026-05-04 02:18 34.17334 -115.64533 31755 ft 339 kts 256°
2026-05-04 02:18 34.16269 -115.70045 31756 ft 339 kts 262°
2026-05-04 02:19 34.15729 -115.75708 31780 ft 339 kts 262°
2026-05-04 02:19 34.15195 -115.81358 31808 ft 338 kts 262°
2026-05-04 02:20 34.14656 -115.87002 31818 ft 338 kts 262°
2026-05-04 02:20 34.14103 -115.92644 31832 ft 338 kts 262°
2026-05-04 02:21 34.13545 -115.98282 31857 ft 338 kts 262°
2026-05-04 02:21 34.12999 -116.03876 31867 ft 338 kts 262°
2026-05-04 02:22 34.12450 -116.09504 31866 ft 337 kts 262°
2026-05-04 02:22 34.11892 -116.15124 31853 ft 337 kts 262°
2026-05-04 02:23 34.11332 -116.20759 31860 ft 337 kts 262°
2026-05-04 02:23 34.10775 -116.26362 31799 ft 337 kts 262°
2026-05-04 02:24 34.10212 -116.31993 31514 ft 340 kts 261°
2026-05-04 02:24 34.09914 -116.34824 31138 ft 341 kts 261°
2026-05-04 02:24 34.09608 -116.37678 30752 ft 345 kts 261°
2026-05-04 02:25 34.09298 -116.40566 30362 ft 349 kts 261°
2026-05-04 02:25 34.08983 -116.43486 29971 ft 353 kts 261°
2026-05-04 02:25 34.08663 -116.46440 29528 ft 357 kts 261°
2026-05-04 02:25 34.08341 -116.49384 29130 ft 360 kts 260°
2026-05-04 02:26 34.08015 -116.52382 28737 ft 356 kts 261°
2026-05-04 02:26 34.07699 -116.55305 28313 ft 349 kts 260°
2026-05-04 02:26 34.07384 -116.58202 27927 ft 348 kts 261°
2026-05-04 02:26 34.07081 -116.61106 27553 ft 349 kts 261°
2026-05-04 02:27 34.06805 -116.64012 27189 ft 348 kts 262°
2026-05-04 02:27 34.06544 -116.66910 26798 ft 347 kts 262°
2026-05-04 02:27 34.06288 -116.69797 26409 ft 345 kts 262°
2026-05-04 02:27 34.06031 -116.72673 26027 ft 344 kts 262°
2026-05-04 02:28 34.05770 -116.75539 25670 ft 344 kts 262°
2026-05-04 02:28 34.05503 -116.78408 25289 ft 344 kts 262°
2026-05-04 02:28 34.05231 -116.81267 24905 ft 343 kts 262°
2026-05-04 02:28 34.04959 -116.84123 24509 ft 343 kts 262°
2026-05-04 02:29 34.04689 -116.86981 24139 ft 343 kts 262°
2026-05-04 02:29 34.04415 -116.89830 23758 ft 340 kts 261°
2026-05-04 02:29 34.04091 -116.92646 23121 ft 338 kts 260°
2026-05-04 02:29 34.03735 -116.95401 22557 ft 335 kts 259°
2026-05-04 02:30 34.03360 -116.98160 22013 ft 332 kts 259°
2026-05-04 02:30 34.02983 -117.00904 21498 ft 329 kts 259°
2026-05-04 02:30 34.02615 -117.03618 20961 ft 327 kts 259°
2026-05-04 02:30 34.02272 -117.06325 20432 ft 325 kts 259°
2026-05-04 02:31 34.01952 -117.09012 19904 ft 322 kts 260°
2026-05-04 02:31 34.01643 -117.11677 19396 ft 320 kts 260°
2026-05-04 02:31 34.01338 -117.14329 18871 ft 319 kts 259°
2026-05-04 02:31 34.01024 -117.17009 18351 ft 325 kts 259°
2026-05-04 02:32 34.00704 -117.19704 17823 ft 324 kts 259°
2026-05-04 02:32 34.00491 -117.21482 17460 ft 324 kts 259°
2026-05-04 02:32 34.00056 -117.25046 16746 ft 324 kts 259°
2026-05-04 02:32 33.99737 -117.27741 16219 ft 325 kts 259°
2026-05-04 02:33 33.99426 -117.30445 15732 ft 327 kts 261°
2026-05-04 02:33 33.99447 -117.32309 15452 ft 332 kts 274°
2026-05-04 02:33 33.99789 -117.35062 15033 ft 331 kts 268°
2026-05-04 02:33 33.99601 -117.37800 14620 ft 328 kts 259°
2026-05-04 02:34 33.98972 -117.40422 14212 ft 325 kts 244°
2026-05-04 02:34 33.98133 -117.42959 13802 ft 327 kts 248°
2026-05-04 02:34 33.97616 -117.45630 13381 ft 331 kts 264°
2026-05-04 02:34 33.97689 -117.48411 13027 ft 333 kts 270°
2026-05-04 02:35 33.97827 -117.51151 12991 ft 333 kts 270°
2026-05-04 02:35 33.98153 -117.53931 13015 ft 338 kts 279°
2026-05-04 02:35 33.98747 -117.56680 13009 ft 339 kts 281°
2026-05-04 02:35 33.99363 -117.59421 13009 ft 339 kts 281°
2026-05-04 02:36 33.99978 -117.62147 12790 ft 335 kts 281°
2026-05-04 02:36 34.00361 -117.64886 12159 ft 327 kts 270°
2026-05-04 02:36 34.00405 -117.67608 11525 ft 323 kts 264°
2026-05-04 02:36 34.00230 -117.70303 10900 ft 320 kts 263°
2026-05-04 02:37 34.00067 -117.72968 10292 ft 318 kts 263°
2026-05-04 02:37 33.99904 -117.75612 9896 ft 309 kts 263°
2026-05-04 02:37 33.99751 -117.78073 9750 ft 286 kts 263°
2026-05-04 02:37 33.99631 -117.80391 9201 ft 272 kts 265°
2026-05-04 02:38 33.99529 -117.82638 8425 ft 267 kts 262°
2026-05-04 02:38 33.99331 -117.84877 7764 ft 270 kts 261°
2026-05-04 02:38 33.99086 -117.87111 7295 ft 268 kts 259°
2026-05-04 02:38 33.98837 -117.89332 6952 ft 266 kts 260°
2026-05-04 02:39 33.98603 -117.91540 6577 ft 266 kts 261°
2026-05-04 02:39 33.98348 -117.93766 6357 ft 268 kts 260°
2026-05-04 02:39 33.98095 -117.95922 6117 ft 250 kts 260°
2026-05-04 02:39 33.97852 -117.97911 5886 ft 232 kts 260°
2026-05-04 02:40 33.97625 -117.99807 5663 ft 228 kts 261°
2026-05-04 02:40 33.97391 -118.01681 5428 ft 224 kts 260°
2026-05-04 02:40 33.97162 -118.03505 5207 ft 222 kts 260°
2026-05-04 02:40 33.96925 -118.05337 4973 ft 220 kts 261°
2026-05-04 02:41 33.96701 -118.07157 4726 ft 220 kts 262°
2026-05-04 02:41 33.96528 -118.08995 4479 ft 221 kts 263°
2026-05-04 02:41 33.96368 -118.10834 4220 ft 220 kts 263°
2026-05-04 02:41 33.96210 -118.12643 3945 ft 212 kts 263°
2026-05-04 02:42 33.96066 -118.14352 3700 ft 198 kts 263°
2026-05-04 02:42 33.95942 -118.15937 3599 ft 184 kts 263°
2026-05-04 02:42 33.95819 -118.17480 3489 ft 185 kts 263°
2026-05-04 02:42 33.95677 -118.19011 3273 ft 182 kts 262°
2026-05-04 02:43 33.95530 -118.20513 3040 ft 180 kts 261°
2026-05-04 02:43 33.95381 -118.22006 2804 ft 179 kts 261°
2026-05-04 02:43 33.95232 -118.23488 2568 ft 178 kts 262°
2026-05-04 02:43 33.95084 -118.24961 2324 ft 177 kts 262°
2026-05-04 02:44 33.94935 -118.26432 2093 ft 177 kts 262°
2026-05-04 02:44 33.94787 -118.27899 1863 ft 176 kts 262°
2026-05-04 02:44 33.94640 -118.29356 1635 ft 171 kts 262°
2026-05-04 02:44 33.94505 -118.30699 1411 ft 150 kts 262°
2026-05-04 02:45 33.94388 -118.31858 1207 ft 130 kts 262°
2026-05-04 02:45 33.94282 -118.32888 1032 ft 119 kts 264°
2026-05-04 02:45 33.94181 -118.33844 832 ft 114 kts 262°
2026-05-04 02:45 33.94092 -118.34800 679 ft 114 kts 266°
2026-05-04 02:46 33.94008 -118.35749 563 ft 114 kts 264°
2026-05-04 02:46 33.93900 -118.36706 384 ft 116 kts 264°
2026-05-04 02:46 33.93805 -118.37655 308 ft 110 kts 261°
2026-05-04 02:46 33.93710 -118.38558 173 ft 108 kts 262°
2026-05-04 02:47 33.93632 -118.39388 126 ft 74 kts 262°
2026-05-04 02:47 33.93601 -118.39699 126 ft 14 kts 271°
2026-05-04 02:47 33.93613 -118.39807 122 ft 11 kts 283°
2026-05-04 02:47 33.93633 -118.39883 123 ft 9 kts 291°
2026-05-04 02:48 33.93660 -118.39971 123 ft 13 kts 285°
2026-05-04 02:48 33.93661 -118.40095 124 ft 17 kts 261°
2026-05-04 02:48 33.93646 -118.40244 126 ft 19 kts 263°
2026-05-04 02:48 33.93632 -118.40386 126 ft 16 kts 263°
2026-05-04 02:49 33.93618 -118.40534 126 ft 19 kts 263°
2026-05-04 02:49 33.93605 -118.40651 125 ft 12 kts 263°
2026-05-04 02:49 33.93594 -118.40767 124 ft 16 kts 267°
2026-05-04 02:49 33.93629 -118.40882 125 ft 13 kts 313°
2026-05-04 02:50 33.93691 -118.40900 124 ft 7 kts 352°
2026-05-04 02:50 33.93720 -118.40903 123 ft 3 kts 354°
2026-05-04 02:50 33.93746 -118.40906 123 ft 4 kts 354°
2026-05-04 02:50 33.93747 -118.40906 123 ft 0 kts 354°
2026-05-04 02:51 33.93752 -118.40907 122 ft 5 kts 354°
2026-05-04 02:52 33.93818 -118.40917 123 ft 10 kts 353°
2026-05-04 02:52 33.93859 -118.40915 123 ft 4 kts 28°
2026-05-04 02:52 33.93870 -118.40884 125 ft 4 kts 82°
2026-05-04 02:52 33.93874 -118.40848 126 ft 4 kts 81°
2026-05-04 02:53 33.93888 -118.40817 122 ft 4 kts 47°
2026-05-04 02:53 33.93915 -118.40807 123 ft 4 kts
2026-05-04 02:53 33.93931 -118.40820 123 ft 2 kts 287°
2026-05-04 02:53 33.93941 -118.40853 125 ft 8 kts 289°
2026-05-04 02:54 33.93961 -118.40919 125 ft 4 kts 291°
2026-05-04 02:54 33.93963 -118.40924 126 ft 0 kts 291°